Location: Dana
(41.8364°N, 106.7042°W)
Time: 14:31:21
(UTC+00:00)

SR - Pass Details

Date: 19 May 2026
Orbit: 567 x 853 km, 66.7° (Epoch: 7 June)

Event Time Altitude Azimuth Distance (km) Brightness Sun altitude
Rises 22:53:28 0° 321° (NW) 3,402 ? 37.1°
Reaches altitude 10° 22:56:07 10° 312° (NW) 2,478 ? 36.6°
Maximum altitude 23:01:15 34° 250° (WSW) 1,369 ? 35.7°
Drops below altitude 10° 23:06:20 10° 187° (S) 2,450 ? 34.7°
Sets 23:08:57 0° 178° (S) 3,358 ? 34.2°
